Weather History for Indiana, PA

Change the Weather History Date:

Friday, January 31, 2014

  Actual Average Record
Temperature  
Mean Temperature 32 °F -  
Max Temperature 35 °F 36 °F 69 °F (2002)
Min Temperature 28 °F 18 °F -14 °F (1955)
Degree Days  
Heating Degree Days 34    
Moisture  
Dew Point -42 °F    
Average Humidity 6    
Maximum Humidity 21    
Minimum Humidity 4    
Precipitation  
Precipitation 0.00 in - - ()
Sea Level Pressure  
Sea Level Pressure 30.08 in    
Wind  
Wind Speed 7 mph (WSW)    
Max Wind Speed 15 mph    
Max Gust Speed 23 mph    
Visibility 10 miles    
Events      
Averages and records for this station are not official NWS values.
T = Trace of Precipitation, MM = Missing Value Source: NWS Daily Summary

Daily Weather History Graph

Daily Weather History Graph

Search for Another Location

Airport:

Trip Planner

Search our weather history database for the weather conditions in past years. The results will help you decide how hot, cold, wet, or windy it might be!

Date:

Astronomy

Jan. 31, 2014 Rise Set
Actual Time 7:27 AM EST 5:33 PM EST
Civil Twilight 6:58 AM EST 6:02 PM EST
Nautical Twilight 6:25 AM EST 6:34 PM EST
Astronomical Twilight 5:53 AM EST 7:06 PM EST
Moon 7:35 AM EST 6:55 PM EST
Length of Visible Light 11h 03m
Length of Day
10h 05m
New Moon, 1% of the Moon is Illuminated
Jan 31
New Moon
Feb 6
First Quarter
Feb 14
Full
Feb 22
Last Quarter
Mar 1
New

Hourly Weather History & Observations

Time (EST) Temp. Windchill Dew Point Humidity Pressure Visibility Wind Dir Wind Speed Gust Speed Precip Events Conditions
12:15 AM 28.4 °F - -54.4 °F 4% 29.96 in 10.0 mi Calm Calm - N/A   Clear
12:35 AM 28.4 °F - -54.4 °F 4% 29.97 in 10.0 mi Calm Calm - N/A   Clear
12:55 AM 30.2 °F 24.3 °F -54.4 °F 4% 29.97 in 10.0 mi WSW 5.8 mph - N/A   Clear
1:15 AM 30.2 °F 22.6 °F -54.4 °F 4% 29.97 in 10.0 mi WSW 8.1 mph - N/A   Scattered Clouds
1:35 AM 32.0 °F 23.6 °F -54.4 °F 4% 29.98 in 10.0 mi WSW 10.4 mph - N/A   Mostly Cloudy
1:55 AM 32.0 °F 24.2 °F -54.4 °F 4% 29.98 in 10.0 mi West 9.2 mph - N/A   Scattered Clouds
2:15 AM 32.0 °F 24.8 °F -54.4 °F 4% 29.99 in 10.0 mi West 8.1 mph - N/A   Mostly Cloudy
2:35 AM 33.8 °F 25.8 °F -54.4 °F 4% 30.00 in 10.0 mi West 10.4 mph - N/A   Scattered Clouds
2:55 AM 33.8 °F 24.8 °F -54.4 °F 4% 30.00 in 10.0 mi West 12.7 mph 20.7 mph N/A   Mostly Cloudy
3:15 AM 33.8 °F 24.3 °F -54.4 °F 4% 30.00 in 10.0 mi West 13.8 mph 23.0 mph N/A   Overcast
3:35 AM 33.8 °F 25.8 °F -54.4 °F 4% 29.99 in 10.0 mi West 10.4 mph 20.7 mph N/A   Overcast
3:55 AM 33.8 °F 24.8 °F -54.4 °F 4% 29.99 in 10.0 mi West 12.7 mph 19.6 mph N/A   Overcast
4:15 AM 33.8 °F 25.8 °F -54.4 °F 4% 29.99 in 10.0 mi West 10.4 mph - N/A   Overcast
4:35 AM 33.8 °F 23.9 °F -54.4 °F 4% 30.00 in 10.0 mi West 15.0 mph - N/A   Overcast
4:55 AM 33.8 °F 25.3 °F -54.4 °F 4% 30.00 in 10.0 mi West 11.5 mph 19.6 mph N/A   Overcast
5:15 AM 33.8 °F 25.8 °F -54.4 °F 4% 30.00 in 10.0 mi West 10.4 mph 19.6 mph N/A   Overcast
5:35 AM 32.0 °F 23.6 °F -54.4 °F 4% 30.01 in 10.0 mi West 10.4 mph - N/A   Overcast
5:55 AM 32.0 °F 23.6 °F -54.4 °F 4% 30.01 in 10.0 mi West 10.4 mph 16.1 mph N/A   Overcast
6:15 AM 32.0 °F 23.0 °F -54.4 °F 4% 30.01 in 10.0 mi West 11.5 mph - N/A   Overcast
6:35 AM 32.0 °F 23.6 °F -54.4 °F 4% 30.02 in 10.0 mi WSW 10.4 mph - N/A   Overcast
6:55 AM 32.0 °F 23.0 °F -54.4 °F 4% 30.03 in 10.0 mi West 11.5 mph - N/A   Overcast
7:15 AM 32.0 °F 23.6 °F -54.4 °F 4% 30.04 in 10.0 mi WSW 10.4 mph - N/A   Overcast
7:35 AM 30.2 °F 22.6 °F -54.4 °F 4% 30.06 in 10.0 mi WSW 8.1 mph - N/A   Overcast
7:55 AM 30.2 °F 22.6 °F -54.4 °F 4% 30.05 in 10.0 mi SW 8.1 mph - N/A   Overcast
8:15 AM 30.2 °F 20.8 °F -54.4 °F 4% 30.05 in 10.0 mi SW 11.5 mph - N/A   Overcast
8:35 AM 30.2 °F 21.3 °F -47.2 °F 4% 30.05 in 10.0 mi WSW 10.4 mph - N/A   Overcast
8:55 AM 30.2 °F 20.2 °F -43.6 °F 4% 30.08 in 10.0 mi WSW 12.7 mph 16.1 mph N/A   Overcast
9:15 AM 30.2 °F 21.3 °F -43.6 °F 4% 30.07 in 10.0 mi WSW 10.4 mph - N/A   Overcast
9:35 AM 32.0 °F 23.0 °F -34.6 °F 5% 30.09 in 10.0 mi WSW 11.5 mph - N/A   Overcast
9:55 AM 32.0 °F 24.2 °F -29.2 °F 6% 30.10 in 10.0 mi WSW 9.2 mph 17.3 mph N/A   Overcast
10:15 AM 32.0 °F 22.1 °F -29.2 °F 6% 30.11 in 10.0 mi WSW 13.8 mph - N/A   Overcast
10:35 AM 32.0 °F 23.6 °F -31.0 °F 6% 30.11 in 10.0 mi WSW 10.4 mph - N/A   Overcast
10:55 AM 33.8 °F 27.0 °F -34.6 °F 4% 30.11 in 10.0 mi WSW 8.1 mph - N/A   Overcast
11:15 AM 33.8 °F 26.4 °F -38.2 °F 4% 30.11 in 10.0 mi West 9.2 mph - N/A   Overcast
11:35 AM 33.8 °F 27.0 °F -45.4 °F 4% 30.10 in 10.0 mi WSW 8.1 mph - N/A   Overcast
11:55 AM 33.8 °F 26.4 °F -52.6 °F 4% 30.09 in 10.0 mi WSW 9.2 mph - N/A   Mostly Cloudy
12:15 PM 33.8 °F 27.0 °F -54.4 °F 4% 30.10 in 10.0 mi West 8.1 mph - N/A   Mostly Cloudy
12:35 PM 33.8 °F 25.8 °F -50.8 °F 4% 30.10 in 10.0 mi WSW 10.4 mph - N/A   Overcast
12:55 PM 35.6 °F 27.5 °F -52.6 °F 4% 30.09 in 10.0 mi WSW 11.5 mph - N/A   Overcast
1:15 PM 35.6 °F 28.6 °F -54.4 °F 4% 30.08 in 10.0 mi West 9.2 mph - N/A   Overcast
1:35 PM 35.6 °F 28.0 °F -54.4 °F 4% 30.07 in 10.0 mi WSW 10.4 mph - N/A   Scattered Clouds
1:55 PM 35.6 °F 28.0 °F -54.4 °F 4% 30.07 in 10.0 mi WSW 10.4 mph - N/A   Clear
2:15 PM 35.6 °F 28.6 °F -54.4 °F 4% 30.05 in 10.0 mi WSW 9.2 mph - N/A   Scattered Clouds
2:35 PM 35.6 °F 28.0 °F -54.4 °F 4% 30.05 in 10.0 mi SW 10.4 mph - N/A   Scattered Clouds
2:55 PM 35.6 °F 28.6 °F -54.4 °F 4% 30.07 in 10.0 mi WSW 9.2 mph - N/A   Mostly Cloudy
3:15 PM 35.6 °F 29.2 °F -54.4 °F 4% 30.08 in 10.0 mi WSW 8.1 mph - N/A   Overcast
3:35 PM 35.6 °F 27.5 °F -54.4 °F 4% 30.09 in 10.0 mi WSW 11.5 mph - N/A   Overcast
3:55 PM 35.6 °F 27.5 °F -52.6 °F 4% 30.10 in 10.0 mi WSW 11.5 mph - N/A   Overcast
4:15 PM 35.6 °F 28.0 °F -41.8 °F 4% 30.10 in 10.0 mi WSW 10.4 mph - N/A   Overcast
4:35 PM 35.6 °F 29.2 °F -41.8 °F 4% 30.11 in 10.0 mi West 8.1 mph - N/A   Overcast
4:55 PM 35.6 °F 29.9 °F -50.8 °F 4% 30.12 in 10.0 mi WSW 6.9 mph - N/A   Overcast
5:15 PM 35.6 °F 30.7 °F -41.8 °F 4% 30.14 in 10.0 mi West 5.8 mph - N/A   Overcast
5:35 PM 35.6 °F - -32.8 °F 4% 30.14 in 10.0 mi Calm Calm - N/A   Overcast
5:55 PM 35.6 °F 31.7 °F -38.2 °F 4% 30.15 in 10.0 mi WNW 4.6 mph - N/A   Overcast
6:15 PM 35.6 °F - -47.2 °F 4% 30.15 in 10.0 mi Calm Calm - N/A   Overcast
6:35 PM 33.8 °F - -36.4 °F 4% 30.14 in 10.0 mi Calm Calm - N/A   Overcast
6:55 PM 33.8 °F - -36.4 °F 4% 30.15 in 10.0 mi Calm Calm - N/A   Overcast
7:15 PM 33.8 °F - -32.8 °F 5% 30.15 in 10.0 mi Calm Calm - N/A   Overcast
7:35 PM 33.8 °F - -25.6 °F 7% 30.15 in 10.0 mi Calm Calm - N/A   Overcast
7:55 PM 33.8 °F - -27.4 °F 6% 30.15 in 10.0 mi Calm Calm - N/A   Overcast
8:15 PM 33.8 °F - -23.8 °F 8% 30.17 in 10.0 mi Calm Calm - N/A   Overcast
8:35 PM 32.0 °F - -20.2 °F 10% 30.16 in 10.0 mi Calm Calm - N/A   Overcast
8:55 PM 32.0 °F - -18.4 °F 11% 30.16 in 10.0 mi Calm Calm - N/A   Overcast
9:15 PM 32.0 °F - -16.6 °F 12% 30.17 in 10.0 mi Calm Calm - N/A   Mostly Cloudy
9:35 PM 30.2 °F - -14.8 °F 14% 30.17 in 10.0 mi Calm Calm - N/A   Mostly Cloudy
9:55 PM 30.2 °F - -7.6 °F 19% 30.16 in 10.0 mi Calm Calm - N/A   Overcast
10:15 PM 30.2 °F - -9.4 °F 18% 30.16 in 10.0 mi Calm Calm - N/A   Overcast
10:35 PM 30.2 °F - -5.8 °F 21% 30.17 in 10.0 mi Calm Calm - N/A   Overcast
10:55 PM 30.2 °F - -5.8 °F 21% 30.17 in 10.0 mi Calm Calm - N/A   Overcast
11:15 PM 30.2 °F - -9.4 °F 18% 30.16 in 10.0 mi Calm Calm - N/A   Overcast
11:35 PM 30.2 °F - -5.8 °F 21% 30.15 in 10.0 mi Calm Calm - N/A   Overcast
11:55 PM 30.2 °F - -7.6 °F 19% 30.15 in 10.0 mi Calm Calm - N/A   Overcast